Regional Weather Roundup
Issued by NWS New Orleans/Baton Rouge, LA

Home | Current Version | Previous Version | Graphics & Text | Print | Product List | Glossary On
Versions: 1 2 3 4 5 6 7 8 9 10 11 12 13 14 15 16 17 18 19 20 21 22 23 24 25 26 27 28 29 30 31 32 33 34 35 36 37 38 39 40 41 42 43 44 45 46 47 48 49 50
118
ASUS44 KLIX 051701
RWRLIX
NEW ORLEANS REGIONAL WEATHER ROUNDUP
NATIONAL WEATHER SERVICE NEW ORLEANS LA
1100 AM CST THU MAR 05 2015

NOTE: "FAIR" INDICATES FEW OR NO CLOUDS BELOW 12,000 FEET WITH NO
      SIGNIFICANT WEATHER AND/OR OBSTRUCTIONS TO VISIBILITY.
      SKY/WX - SKY CONDITION AND SIGNIFICANT WEATHER.
      TMP - AIR TEMPERATURE.     DP    - DEWPOINT TEMPERATURE.
      RH  - RELATIVE HUMIDITY.   PRES  - PRESSURE.
      HI  - HEAT INDEX.          WCI   - WIND CHILL INDEX.

*  THESE STATIONS ARE NOT NWS OR FAA STATIONS AND ARE NOT UNDER
   NWS QUALITY CONTROL.

LAZ038-040-048-061>063-065>067-069-051800-
SOUTHEAST LOUISIANA

CITY           SKY/WX    TMP DP  RH WIND       PRES   REMARKS
N.O. AUDUBON   NOT AVBL
N.O. INTL ARPT CLOUDY    42  37  82 N20G31    30.26R
N.O. LAKEFRONT LGT RAIN  45  40  82 N29G36    30.26R
SLIDELL        CLOUDY    42  38  85 N10G22    30.25R
BATON ROUGE    CLOUDY    36  31  82 N8G25     30.34R WCI  30
BOOTHVILLE     CLOUDY    52  47  83 N13G23    30.17R
BELLE CHASSE   CLOUDY    45  38  76 N15G26    30.22R
BOGALUSA*      NOT AVBL
GALLIANO*      NOT AVBL
NEW ROADS*     NOT AVBL
GONZALES*      NOT AVBL
HAMMOND*       NOT AVBL
HOUMA*         PTSUNNY   45  39  81 N17G26    30.23R
PORT FOURCHON* CLOUDY    52  46  82 N25G36    30.21R

$$

MSZ070-080>082-051800-
SOUTHERN MISSISSIPPI

CITY           SKY/WX    TMP DP  RH WIND       PRES   REMARKS
MCCOMB         CLOUDY    33  29  85 N16G25    30.32R WCI  23
GULFPORT       CLOUDY    44  38  79 N17G26    30.19R
BILOXI         NOT AVBL
PASCAGOULA     PTSUNNY   51  41  68 N16G29    30.14R
STENNIS ARPT*  RAIN      43  37  81 N15G25    30.24R

$$

COASTAL OBSERVATIONS
LAKE AND NEARSHORE STATIONS

STATION/POSITION TIME  TEMP    WIND        PRES    WAVE
                       AIR SEA DIR/SP/G            HT/PER
                 (UTC) (F)     (DEG/KT/KT) (MB)    (FT/S)
PASCAGOULA       1618   50     350/ 16/ 21 1019.5
WAVELAND YACHT   1618   43 60  360/ 21/ 24 1021.6
GRAND ISLE       1618      66   10/ 22/ 25 1021.6
SOUTHWEST PASS   1618   52 44  360/ 24/ 30 1020.8
NEW CANAL        1618   43     360/ 21/ 26 1023.3
SHELL BEACH      1618   46 62  350/ 20/ 23 1022.1

OFFSHORE STATIONS

STATION/POSITION TIME  TEMP    WIND        PRES    WAVE
                       AIR SEA DIR/SP/G            HT/PER
                 (UTC) (F)     (DEG/KT/KT) (MB)    (FT/S)
64 S DAUPHIN ISL 1552   58 71  350/ 27/ 33 1019.4    6/ 5

$$




USA.gov is the U.S. government's official web portal to all federal, state and local government web resources and services.